TimeAKST,TemperatureF,Dew PointF,Humidity,Sea Level PressureIn,VisibilityMPH,Wind Direction,Wind SpeedMPH,Gust SpeedMPH,PrecipitationIn,Events,Conditions,WindDirDegrees,DateUTC
12:16 AM,15.8,15.8,100,29.92,8.0,North,-9999.0,-,N/A,,Overcast,0,2013-12-28 09:16:00
12:36 AM,17.6,15.8,93,29.91,8.0,North,-9999.0,-,N/A,,Overcast,0,2013-12-28 09:36:00
12:56 AM,17.6,15.8,93,29.91,8.0,North,-9999.0,-,N/A,,Overcast,0,2013-12-28 09:56:00
1:16 AM,17.6,15.8,93,29.92,8.0,North,-9999.0,-,N/A,,Overcast,0,2013-12-28 10:16:00
1:36 AM,17.6,15.8,93,29.92,8.0,North,-9999.0,-,N/A,,Overcast,0,2013-12-28 10:36:00
1:56 AM,17.6,15.8,93,29.92,7.0,North,-9999.0,-,N/A,,Overcast,0,2013-12-28 10:56:00
2:16 AM,17.6,15.8,93,29.92,3.0,North,-9999.0,-,N/A,,Overcast,0,2013-12-28 11:16:00
2:36 AM,17.6,15.8,93,29.92,4.0,North,-9999.0,-,N/A,,Overcast,0,2013-12-28 11:36:00
2:56 AM,17.6,17.6,100,29.92,2.5,North,-9999.0,-,N/A,,Mostly Cloudy,0,2013-12-28 11:56:00
3:16 AM,17.6,17.6,100,29.92,3.0,North,-9999.0,-,N/A,,Clear,0,2013-12-28 12:16:00
3:36 AM,17.6,17.6,100,29.91,4.0,North,-9999.0,-,N/A,,Scattered Clouds,0,2013-12-28 12:36:00
3:56 AM,17.6,17.6,100,29.91,6.0,North,-9999.0,-,N/A,,Mostly Cloudy,0,2013-12-28 12:56:00
4:16 AM,17.6,15.8,93,29.92,4.0,North,-9999.0,-,N/A,,Mostly Cloudy,0,2013-12-28 13:16:00
4:36 AM,17.6,17.6,100,29.91,6.0,North,-9999.0,-,N/A,,Overcast,0,2013-12-28 13:36:00
4:56 AM,17.6,15.8,93,29.91,8.0,North,-9999.0,-,N/A,,Overcast,0,2013-12-28 13:56:00
5:16 AM,17.6,15.8,93,29.91,8.0,North,-9999.0,-,N/A,,Overcast,0,2013-12-28 14:16:00
5:36 AM,17.6,15.8,93,29.91,8.0,North,-9999.0,-,N/A,,Overcast,0,2013-12-28 14:36:00
5:56 AM,17.6,15.8,93,29.91,8.0,North,-9999.0,-,N/A,,Overcast,0,2013-12-28 14:56:00
6:16 AM,17.6,15.8,93,29.91,8.0,North,-9999.0,-,N/A,,Overcast,0,2013-12-28 15:16:00
6:36 AM,17.6,15.8,93,29.91,9.0,North,-9999.0,-,N/A,,Overcast,0,2013-12-28 15:36:00
6:56 AM,17.6,15.8,93,29.92,8.0,North,-9999.0,-,N/A,,Overcast,0,2013-12-28 15:56:00
7:16 AM,17.6,15.8,93,29.92,9.0,North,-9999.0,-,N/A,,Overcast,0,2013-12-28 16:16:00
7:36 AM,15.8,15.8,100,29.92,9.0,North,-9999.0,-,N/A,,Overcast,0,2013-12-28 16:36:00
7:56 AM,15.8,15.8,100,29.93,9.0,North,-9999.0,-,N/A,,Overcast,0,2013-12-28 16:56:00
8:16 AM,15.8,14.0,93,29.93,9.0,North,-9999.0,-,N/A,,Overcast,0,2013-12-28 17:16:00
8:36 AM,17.6,14.0,86,29.94,9.0,North,-9999.0,-,N/A,,Overcast,0,2013-12-28 17:36:00
8:56 AM,17.6,15.8,93,29.94,9.0,North,-9999.0,-,N/A,,Overcast,0,2013-12-28 17:56:00
9:16 AM,17.6,15.8,93,29.94,8.0,North,-9999.0,-,N/A,,Overcast,0,2013-12-28 18:16:00
9:36 AM,15.8,14.0,93,29.95,8.0,North,-9999.0,-,N/A,,Overcast,0,2013-12-28 18:36:00
9:56 AM,15.8,15.8,100,29.95,7.0,North,-9999.0,-,N/A,,Overcast,0,2013-12-28 18:56:00
10:16 AM,15.8,14.0,93,29.95,7.0,North,-9999.0,-,N/A,,Overcast,0,2013-12-28 19:16:00
10:36 AM,15.8,12.2,86,29.95,7.0,North,-9999.0,-,N/A,,Overcast,0,2013-12-28 19:36:00
10:56 AM,15.8,12.2,86,29.94,7.0,North,-9999.0,-,N/A,,Overcast,0,2013-12-28 19:56:00
11:16 AM,15.8,12.2,86,29.94,7.0,North,-9999.0,-,N/A,,Overcast,0,2013-12-28 20:16:00
11:36 AM,15.8,14.0,93,29.94,7.0,North,-9999.0,-,N/A,,Overcast,0,2013-12-28 20:36:00
11:56 AM,15.8,12.2,86,29.94,7.0,North,-9999.0,-,N/A,,Overcast,0,2013-12-28 20:56:00
12:16 PM,17.6,15.8,93,29.94,7.0,North,-9999.0,-,N/A,,Overcast,0,2013-12-28 21:16:00
12:36 PM,17.6,15.8,93,29.94,8.0,North,-9999.0,-,N/A,,Overcast,0,2013-12-28 21:36:00
12:56 PM,17.6,15.8,93,29.93,7.0,North,-9999.0,-,N/A,,Overcast,0,2013-12-28 21:56:00
1:16 PM,17.6,15.8,93,29.93,7.0,North,-9999.0,-,N/A,,Overcast,0,2013-12-28 22:16:00
1:36 PM,19.4,15.8,86,29.93,7.0,North,-9999.0,-,N/A,,Overcast,0,2013-12-28 22:36:00
1:56 PM,19.4,17.6,93,29.93,7.0,North,-9999.0,-,N/A,,Overcast,0,2013-12-28 22:56:00
2:16 PM,19.4,17.6,93,29.93,7.0,North,-9999.0,-,N/A,,Overcast,0,2013-12-28 23:16:00
2:36 PM,19.4,17.6,93,29.93,7.0,North,-9999.0,-,N/A,,Overcast,0,2013-12-28 23:36:00
2:56 PM,19.4,17.6,93,29.92,7.0,North,-9999.0,-,N/A,,Overcast,0,2013-12-28 23:56:00
3:16 PM,19.4,19.4,100,29.93,8.0,North,-9999.0,-,N/A,,Overcast,0,2013-12-29 00:16:00
3:36 PM,19.4,17.6,93,29.93,7.0,North,-9999.0,-,N/A,,Overcast,0,2013-12-29 00:36:00
3:56 PM,19.4,17.6,93,29.93,7.0,North,-9999.0,-,N/A,,Overcast,0,2013-12-29 00:56:00
4:16 PM,19.4,17.6,93,29.93,7.0,North,-9999.0,-,N/A,,Overcast,0,2013-12-29 01:16:00
4:36 PM,17.6,15.8,93,29.94,7.0,North,-9999.0,-,N/A,,Overcast,0,2013-12-29 01:36:00
4:56 PM,17.6,15.8,93,29.94,9.0,North,-9999.0,-,N/A,,Overcast,0,2013-12-29 01:56:00
5:16 PM,17.6,15.8,93,29.93,9.0,North,-9999.0,-,N/A,,Overcast,0,2013-12-29 02:16:00
5:36 PM,15.8,12.2,86,29.93,9.0,North,-9999.0,-,N/A,,Mostly Cloudy,0,2013-12-29 02:36:00
5:56 PM,15.8,12.2,86,29.94,9.0,North,-9999.0,-,N/A,,Overcast,0,2013-12-29 02:56:00
6:16 PM,15.8,14.0,93,29.93,8.0,North,-9999.0,-,N/A,,Overcast,0,2013-12-29 03:16:00
6:36 PM,15.8,10.4,79,29.93,9.0,North,-9999.0,-,N/A,,Overcast,0,2013-12-29 03:36:00
6:56 PM,15.8,10.4,79,29.93,9.0,North,-9999.0,-,N/A,,Overcast,0,2013-12-29 03:56:00
7:16 PM,14.0,10.4,86,29.93,9.0,North,-9999.0,-,N/A,,Mostly Cloudy,0,2013-12-29 04:16:00
7:36 PM,14.0,12.2,93,29.93,8.0,North,-9999.0,-,N/A,,Clear,0,2013-12-29 04:36:00
7:56 PM,12.2,10.4,92,29.93,8.0,North,-9999.0,-,N/A,,Mostly Cloudy,0,2013-12-29 04:56:00
8:16 PM,12.2,10.4,92,29.94,9.0,North,-9999.0,-,N/A,,Overcast,0,2013-12-29 05:16:00
8:36 PM,14.0,12.2,93,29.94,8.0,North,-9999.0,-,N/A,,Overcast,0,2013-12-29 05:36:00
8:56 PM,14.0,12.2,93,29.94,8.0,North,-9999.0,-,N/A,,Overcast,0,2013-12-29 05:56:00
9:16 PM,15.8,12.2,86,29.94,9.0,North,-9999.0,-,N/A,,Overcast,0,2013-12-29 06:16:00
9:36 PM,15.8,14.0,93,29.94,8.0,North,-9999.0,-,N/A,,Overcast,0,2013-12-29 06:36:00
9:56 PM,17.6,15.8,93,29.94,5.0,North,-9999.0,-,N/A,,Overcast,0,2013-12-29 06:56:00
10:16 PM,17.6,15.8,93,29.94,4.0,North,-9999.0,-,N/A,,Overcast,0,2013-12-29 07:16:00
10:36 PM,17.6,15.8,93,29.94,1.0,North,-9999.0,-,N/A,,Overcast,0,2013-12-29 07:36:00
10:56 PM,17.6,15.8,93,29.94,0.5,North,-9999.0,-,N/A,,Overcast,0,2013-12-29 07:56:00
11:16 PM,17.6,17.6,100,29.94,0.2,North,-9999.0,-,N/A,,Overcast,0,2013-12-29 08:16:00
11:36 PM,17.6,17.6,100,29.94,0.2,North,-9999.0,-,N/A,,Overcast,0,2013-12-29 08:36:00
11:56 PM,17.6,15.8,93,29.94,0.5,North,-9999.0,-,N/A,,Overcast,0,2013-12-29 08:56:00